Weather History for MMTG - February, 2013

Change the Weather History Date:

Wednesday, February 6, 2013

  Actual Average Record
Temperature  
Mean Temperature 82 °F -  
Max Temperature 97 °F 73 °F 97 °F (2013)
Min Temperature 68 °F 57 °F 51 °F (2009)
Cooling Degree Days 18    
Growing Degree Days 32 (Base 50)    
Moisture  
Dew Point 64 °F    
Average Humidity 57    
Maximum Humidity 94    
Minimum Humidity 27    
Precipitation  
Precipitation 0.00 in - - ()
Sea Level Pressure  
Sea Level Pressure 29.88 in    
Wind  
Wind Speed 2 mph ()    
Max Wind Speed 15 mph    
Max Gust Speed -    
Visibility 9.7 miles    
Events      
Averages and records for this station are not official NWS values.
T = Trace of Precipitation, MM = Missing Value Source: Averaged Metar Reports

Daily Weather History Graph

Daily Weather History Graph

Search for Another Location

Airport or City:

Trip Planner

Search our weather history database for the weather conditions in past years. The results will help you decide how hot, cold, wet, or windy it might be!

Date:

Astronomy

Feb. 06, 2013 Rise Set
Actual Time 6:41 AM CST 6:11 PM CST
Civil Twilight 6:19 AM CST 6:33 PM CST
Nautical Twilight 5:53 AM CST 6:59 PM CST
Astronomical Twilight 5:27 AM CST 7:24 PM CST
Moon 3:09 AM CST (2/6) 2:45 PM CST (2/6)
Length of Visible Light 12h 14m
Length of Day
11h 29m
Waning Crescent, 17% of the Moon is Illuminated
Feb 6
Waning Crescent
Feb 10
New
Feb 17
First Quarter
Feb 25
Full
Mar 4
Last Quarter

Hourly Weather History & Observations

Time (CST) Temp. Heat Index Dew Point Humidity Pressure Visibility Wind Dir Wind Speed Gust Speed Precip Events Conditions
5:37 AM 70 °F - 67 °F 87% 29.89 in 9 mi Calm Calm - -   Scattered Clouds
6:00 AM 62.6 °F - 60.8 °F 94% 29.90 in 10.0 mi Calm Calm - N/A   Clear
6:47 AM 62.6 °F - 60.8 °F 94% 30.00 in 10.0 mi Calm Calm - N/A   Clear
7:45 AM 69.8 °F - 64.4 °F 83% 30.02 in 10.0 mi Calm Calm - N/A   Clear
8:38 AM 76 °F - 63 °F 55% 29.94 in 9 mi WSW 2.2 mph - -  
8:43 AM 75.2 °F - 62.6 °F 65% 29.93 in 10.0 mi Calm Calm - N/A   Clear
9:42 AM 80.6 °F 82.3 °F 64.4 °F 58% 30.03 in 10.0 mi Calm Calm - N/A   Clear
10:41 AM 82.4 °F 83.9 °F 64.4 °F 54% 30.01 in 10.0 mi Calm Calm - N/A   Clear
11:40 AM 87 °F - 67 °F 41% 29.90 in 9 mi ENE 2.2 mph - -   Scattered Clouds
11:42 AM 87.8 °F 89.4 °F 64.4 °F 46% 29.87 in 10.0 mi ESE 6.9 mph - N/A   Clear
12:44 PM 89.6 °F 89.5 °F 60.8 °F 38% 29.93 in 10.0 mi SE 4.6 mph - N/A   Clear
1:42 PM 91.4 °F 91.4 °F 60.8 °F 36% 29.88 in 10.0 mi SE 8.1 mph - N/A   Clear
2:40 PM 95 °F - 64 °F 27% 29.75 in 9 mi SSE 2.2 mph - -   Scattered Clouds
2:52 PM 95.0 °F 94.4 °F 59.0 °F 30% 29.73 in 10.0 mi ENE 6.9 mph - N/A   Partly Cloudy
3:47 PM 95.0 °F 93.7 °F 57.2 °F 28% 29.82 in 10.0 mi Calm Calm - N/A   Partly Cloudy
4:42 PM 95.0 °F 93.7 °F 57.2 °F 28% 29.81 in 10.0 mi NNW 3.5 mph - N/A   Clear
5:40 PM 85 °F - 69 °F 50% 29.73 in 9 mi NNW 6.7 mph - -   Scattered Clouds
5:48 PM 87.8 °F 88.5 °F 62.6 °F 43% 29.73 in 10.0 mi WNW 9.2 mph - N/A   Clear
6:42 PM 84.2 °F 85.6 °F 64.4 °F 51% 29.85 in 10.0 mi NW 15.0 mph - N/A   Clear
7:50 PM 80.6 °F 82.7 °F 66.2 °F 61% 29.89 in 10.0 mi NNW 11.5 mph - N/A   Clear
8:45 PM 78 °F - 71 °F 72% 29.81 in 9 mi NW 2.2 mph - -  
8:46 PM 78.8 °F - 66.2 °F 65% 29.82 in 10.0 mi WNW 4.6 mph - N/A   Clear
9:49 PM 77.0 °F - 66.2 °F 69% 29.94 in 10.0 mi Calm Calm - N/A   Clear
10:44 PM 73.4 °F - 66.2 °F 78% 29.95 in 10.0 mi WSW 3.5 mph - N/A   Clear
11:45 PM 74 °F - 68 °F 78% 29.85 in 9 mi West 2.2 mph - -